Date String (YYYY-MM-DD hh:mm:ss) UTC,Instrument flags,Ambient pressure (hPa),Sample flow (lpm),Bypass flow (lpm),Sample temperature (°C),Ambient temperature (°C),ASC tube jacket temperature (°C),LED temperature (°C),Box temperature (°C),Sample RH (%),Span deviation,Mass concentration (μg/m³),Mass concentration (μg/m³),Mass concentration (μg/m³)
DateTimeUTC,F1_M11,P_M11,Q1_M11,Q2_M11,T1_M11,T2_M11,T3_M11,T4_M11,T5_M11,U1_M11,ZSPAN_M11,X0_M11,X2_M11,X1_M11
2022-05-03 23:00:00,,0818.4,4.99,0.00,26.0,25.1,00.0,34.9,27.9,20.7,-001.5,0013.81,0009.64,0009.27
2022-05-03 23:01:00,,0818.4,4.99,0.00,26.0,25.1,00.0,34.9,27.9,20.9,-001.6,0014.31,0009.62,0009.24
2022-05-03 23:02:00,,0818.3,5.00,0.00,26.0,25.1,00.0,34.9,27.9,21.1,-001.5,0014.20,0009.58,0009.21
2022-05-03 23:03:00,,0818.2,5.01,0.00,26.0,25.1,00.0,34.9,27.9,21.1,-001.6,0014.19,0009.55,0009.17
2022-05-03 23:04:00,,0818.1,4.98,0.00,26.0,25.1,00.0,34.9,27.8,21.4,-001.7,0014.28,0009.52,0009.12
2022-05-03 23:05:00,,0818.1,5.01,0.00,26.0,25.1,00.0,34.9,27.8,21.4,-002.0,0014.26,0009.48,0009.07
2022-05-03 23:06:00,,0818.0,4.99,0.00,26.0,25.1,00.0,34.9,27.9,21.4,-002.1,0014.17,0009.46,0009.05
2022-05-03 23:07:00,,0818.0,5.02,0.00,26.0,25.1,00.0,34.9,27.8,21.4,-002.4,0014.19,0009.42,0009.01
2022-05-03 23:08:00,,0818.0,4.99,0.00,26.0,25.1,00.0,34.9,27.8,21.4,-002.3,0014.05,0009.34,0008.94
2022-05-03 23:09:00,,0817.9,5.01,0.00,26.0,25.1,00.0,34.9,27.8,21.5,-002.3,0013.97,0009.27,0008.88
2022-05-03 23:10:00,,0817.9,5.00,0.00,26.0,25.1,00.0,34.9,27.8,21.6,-002.4,0013.72,0009.22,0008.82
2022-05-03 23:11:00,,0817.9,5.00,0.00,26.0,25.1,00.0,34.9,27.9,21.7,-002.5,0013.82,0009.15,0008.75
2022-05-03 23:12:00,,0818.1,4.99,0.00,26.0,25.1,00.0,34.9,27.9,21.7,-002.5,0013.58,0009.11,0008.69
2022-05-03 23:13:00,,0818.1,5.00,0.00,26.0,25.1,00.0,34.9,27.9,22.0,-002.6,0013.49,0009.05,0008.63
2022-05-03 23:14:00,,0818.1,5.01,0.00,26.0,25.2,00.0,34.9,27.9,21.7,-002.5,0013.51,0009.02,0008.58
2022-05-03 23:15:00,,0818.1,4.99,0.00,26.0,25.2,00.0,34.9,27.9,21.7,-002.5,0013.70,0008.99,0008.53
2022-05-03 23:16:00,,0818.2,5.00,0.00,26.0,25.2,00.0,34.9,27.9,22.0,-002.4,0013.73,0008.96,0008.50
2022-05-03 23:17:00,,0818.4,5.00,0.00,26.0,25.2,00.0,34.9,27.9,22.0,-002.4,0013.69,0008.92,0008.46
2022-05-03 23:18:00,,0818.4,4.99,0.00,26.0,25.2,00.0,34.9,27.9,21.9,-002.4,0013.39,0008.86,0008.38
2022-05-03 23:19:00,,0818.4,5.01,0.00,26.0,25.2,00.0,34.9,27.9,22.0,-002.5,0013.35,0008.80,0008.32
2022-05-03 23:20:00,,0818.4,5.00,0.00,26.0,25.2,00.0,34.9,27.9,21.9,-002.4,0013.36,0008.77,0008.27
2022-05-03 23:21:00,,0818.4,5.00,0.00,26.1,25.3,00.0,34.9,27.9,21.9,-002.2,0013.36,0008.72,0008.21
2022-05-03 23:22:00,,0818.5,4.99,0.00,26.1,25.3,00.0,34.9,27.9,21.8,-002.1,0013.34,0008.73,0008.19
2022-05-03 23:23:00,,0818.6,5.00,0.00,26.1,25.3,00.0,34.9,27.9,21.9,-001.9,0013.05,0008.72,0008.17
2022-05-03 23:24:00,,0818.5,5.01,0.00,26.1,25.3,00.0,34.9,28.0,21.8,-001.9,0013.17,0008.69,0008.12
2022-05-03 23:25:00,,0818.5,4.99,0.00,26.1,25.3,00.0,34.9,28.0,21.7,-001.9,0013.14,0008.67,0008.09
2022-05-03 23:26:00,,0818.4,5.00,0.00,26.1,25.3,00.0,35.0,28.0,21.7,-002.0,0013.03,0008.63,0008.06
2022-05-03 23:27:00,,0818.4,5.00,0.00,26.1,25.3,00.0,35.0,28.0,22.0,-002.1,0012.92,0008.60,0008.03
2022-05-03 23:28:00,,0818.4,5.00,0.00,26.1,25.3,00.0,35.0,28.0,21.8,-001.9,0012.90,0008.55,0007.99
2022-05-03 23:29:00,,0818.4,5.00,0.00,26.1,25.3,00.0,35.0,28.0,21.5,-002.0,0012.86,0008.57,0008.00
2022-05-03 23:30:00,,0818.4,4.99,0.00,26.2,25.3,00.0,35.0,28.0,21.6,-002.0,0013.28,0008.59,0007.99
2022-05-03 23:31:00,,0818.4,5.01,0.00,26.2,25.3,00.0,35.0,28.0,21.7,-002.0,0013.59,0008.53,0007.95
2022-05-03 23:32:00,,0818.5,5.00,0.00,26.2,25.3,00.0,35.0,28.0,21.8,-002.0,0013.54,0008.49,0007.91
2022-05-03 23:33:00,,0818.5,5.00,0.00,26.2,25.3,00.0,35.0,28.0,21.9,-001.8,0013.45,0008.45,0007.87
2022-05-03 23:34:00,,0818.4,5.01,0.00,26.2,25.4,00.0,35.0,28.0,21.9,-002.0,0013.22,0008.39,0007.84
2022-05-03 23:35:00,,0818.4,5.00,0.00,26.2,25.4,00.0,35.0,28.0,21.7,-002.0,0013.02,0008.35,0007.83
2022-05-03 23:36:00,,0818.4,4.99,0.00,26.2,25.4,00.0,35.0,28.1,21.7,-001.9,0012.87,0008.29,0007.81
2022-05-03 23:37:00,,0818.4,5.00,0.00,26.2,25.4,00.0,35.0,28.1,21.7,-001.8,0012.58,0008.24,0007.80
2022-05-03 23:38:00,,0818.4,5.00,0.00,26.2,25.4,00.0,35.1,28.1,21.6,-001.5,0012.40,0008.21,0007.79
2022-05-03 23:39:00,,0818.5,4.99,0.00,26.2,25.4,00.0,35.1,28.1,21.6,-001.6,0012.31,0008.16,0007.78
2022-05-03 23:40:00,,0818.6,5.01,0.00,26.2,25.4,00.0,35.1,28.1,21.6,-001.5,0013.27,0008.09,0007.74
2022-05-03 23:41:00,,0818.7,5.00,0.00,26.3,25.4,00.0,35.1,28.1,21.7,-001.1,0012.78,0008.04,0007.73
2022-05-03 23:42:00,,0818.6,5.00,0.00,26.3,25.4,00.0,35.1,28.1,21.9,-001.1,0012.45,0008.06,0007.74
2022-05-03 23:43:00,,0818.5,5.00,0.00,26.3,25.4,00.0,35.1,28.2,21.6,-001.0,0012.77,0008.05,0007.74
2022-05-03 23:44:00,,0818.4,4.98,0.00,26.3,25.4,00.0,35.1,28.2,21.3,-001.2,0013.22,0008.04,0007.73
2022-05-03 23:45:00,,0818.4,5.01,0.00,26.3,25.5,00.0,35.1,28.2,21.3,-001.1,0013.50,0008.05,0007.73
2022-05-03 23:46:00,,0818.4,5.00,0.00,26.3,25.4,00.0,35.1,28.2,21.4,-001.0,0013.57,0008.07,0007.71
2022-05-03 23:47:00,,0818.4,5.00,0.00,26.3,25.5,00.0,35.1,28.2,21.5,-001.0,0013.81,0008.07,0007.70
2022-05-03 23:48:00,,0818.3,5.00,0.00,26.3,25.5,00.0,35.1,28.2,21.5,-001.0,0013.95,0008.08,0007.69
2022-05-03 23:49:00,,0818.2,5.00,0.00,26.3,25.5,00.0,35.2,28.2,21.6,-001.3,0014.02,0008.11,0007.69
2022-05-03 23:50:00,,0818.1,5.01,0.00,26.3,25.5,00.0,35.2,28.2,21.5,-001.3,0014.15,0008.15,0007.68
2022-05-03 23:51:00,,0818.0,5.00,0.00,26.3,25.5,00.0,35.2,28.2,21.3,-001.4,0012.98,0008.19,0007.70
2022-05-03 23:52:00,,0818.0,5.00,0.00,26.4,25.5,00.0,35.2,28.2,21.5,-001.6,0012.88,0008.24,0007.73
2022-05-03 23:53:00,,0817.9,5.00,0.00,26.4,25.5,00.0,35.2,28.2,21.6,-001.7,0012.79,0008.24,0007.75
2022-05-03 23:54:00,,0817.9,5.01,0.00,26.4,25.5,00.0,35.2,28.2,21.8,-001.9,0012.50,0008.26,0007.78
2022-05-03 23:55:00,,0817.9,5.01,0.00,26.4,25.5,00.0,35.2,28.2,22.0,-001.9,0011.98,0008.25,0007.79
2022-05-03 23:56:00,,0817.9,5.00,0.00,26.4,25.5,00.0,35.2,28.2,22.0,-001.7,0011.81,0008.22,0007.77
2022-05-03 23:57:00,,0818.0,4.99,0.00,26.4,25.5,00.0,35.2,28.3,22.0,-001.7,0011.89,0008.15,0007.74
2022-05-03 23:58:00,,0818.0,5.00,0.00,26.4,25.5,00.0,35.2,28.3,21.6,-001.8,0011.72,0008.12,0007.71
2022-05-03 23:59:00,,0818.0,5.01,0.00,26.4,25.5,00.0,35.2,28.3,21.5,-001.8,0011.59,0008.06,0007.66
